Location: Boissi�res
(45.2500°N, 2.3667°E)
Time: 11:06:18
(UTC+00:00)

X-37B - Visible Passes

Search period start: 24 September 2021 00:00
Search period end: 04 October 2021 00:00
Orbit: 381 x 393 km, 45.0° (Epoch: 29 August)

Date Brightness Start Highest point End Pass type
(mag) Time Alt. Az. Time Alt. Az. Time Alt. Az.
24 Sep 3.8 03:03:52 10° ESE 03:03:52 10° ESE 03:03:56 10° ESE visible
24 Sep 1.0 04:36:10 20° WSW 04:38:09 56° SSE 04:41:17 10° E visible
25 Sep 1.9 03:40:28 34° SE 03:40:28 34° SE 03:42:49 10° E visible
26 Sep 0.5 04:17:04 42° WSW 04:17:59 74° SSE 04:21:08 10° E visible
27 Sep 2.9 03:21:20 23° E 03:21:20 23° E 03:22:44 10° E visible
27 Sep 0.5 04:53:37 14° W 04:56:13 89° S 04:59:23 10° E visible
28 Sep 0.5 03:57:54 84° ESE 03:57:54 84° ESE 04:00:59 10° E visible
29 Sep 3.9 03:02:12 13° E 03:02:12 13° E 03:02:36 10° E visible
29 Sep 0.5 04:34:29 27° W 04:36:04 80° S 04:39:14 10° E visible
30 Sep 2.0 03:38:49 36° E 03:38:49 36° E 03:40:51 10° E visible
30 Sep 1.1 05:11:11 10° W 05:14:13 45° SSW 05:17:16 10° SE visible
01 Oct 0.6 04:15:30 56° WSW 04:15:54 64° SSW 04:19:01 10° ESE visible
02 Oct 3.5 03:19:58 16° ESE 03:19:58 16° ESE 03:20:42 10° ESE visible
02 Oct 1.7 04:52:16 18° WSW 04:53:58 29° SSW 04:56:46 10° SE visible
03 Oct 2.0 03:56:49 30° SSE 03:56:49 30° SSE 03:58:43 10° SE visible
